tag;datum;luden;doro;brinck;aaper
Di;01.01.2012;59;37;18;14
Mi;02.01.2012;13;10;8;8
Do;03.01.2012;;;;
Fr;04.01.2012;20;17;17;16
Sa;05.01.2012;12;10;10;10
So;06.01.2012;24;20;20;17
Mo;07.01.2012;17;15;14;13
Di;08.01.2012;19;16;16;14
Mi;09.01.2012;30;27;25;23
Do;10.01.2012;34;30;26;22
Fr;11.01.2012;32;25;22;21
Sa;12.01.2012;23;19;17;17
So;13.01.2012;29;22;22;19
Mo;14.01.2012;38;30;25;24
Di;15.01.2012;34;31;25;23
Mi;16.01.2012;44;42;25;20
Do;17.01.2012;52;52;38;28
Fr;18.01.2012;41;40;31;27
Sa;19.01.2012;15;11;9;10
So;20.01.2012;20;16;;13
Mo;21.01.2012;16;15;14;13
Di;22.01.2012;17;15;16;15
Mi;23.01.2012;24;21;20;18
Do;24.01.2012;36;33;27;24
Fr;25.01.2012;35;39;22;20
Sa;26.01.2012;29;31;21;19
So;27.01.2012;36;35;24;22
Mo;28.01.2012;35;39;24;22
Di;29.01.2012;73;67;62;63
Mi;30.01.2012;109;110;81;77
Do;31.01.2012;74;67;58;53
Fr;01.02.2012;52;46;42;36
Sa;02.02.2012;44;38;31;29
So;03.02.2012;59;48;35;35
Mo;04.02.2012;72;63;39;38
Di;05.02.2012;34;33;24;22
Mi;06.02.2012;52;47;31;30
Do;07.02.2012;56;49;39;38
Fr;08.02.2012;43;44;37;35
Sa;09.02.2012;77;64;42;38
So;10.02.2012;63;52;32;29
Mo;11.02.2012;58;46;36;36
Di;12.02.2012;73;64;56;51
Mi;13.02.2012;76;63;63;56
Do;14.02.2012;36;29;27;23
Fr;15.02.2012;;;;
Sa;16.02.2012;30;22;20;17
So;17.02.2012;36;30;28;27
Mo;18.02.2012;18;16;13;15
Di;19.02.2012;16;13;13;12
Mi;20.02.2012;37;37;28;26
Do;21.02.2012;44;32;25;25
Fr;22.02.2012;44;33;26;26
Sa;23.02.2012;38;29;28;29
So;24.02.2012;28;24;22;21
Mo;25.02.2012;39;31;30;25
Di;26.02.2012;35;30;31;27
Mi;27.02.2012;57;43;41;38
Do;28.02.2012;42;36;36;30
Fr;29.02.2012;67;55;48;36
Sa;01.03.2012;75;65;61;47
So;02.03.2012;54;42;30;34
Mo;03.03.2012;34;30;25;24
Di;04.03.2012;44;40;37;37
Mi;05.03.2012;20;19;15;15
Do;06.03.2012;34;27;19;17
Fr;07.03.2012;32;30;24;23
Sa;08.03.2012;31;26;20;18
So;09.03.2012;49;42;33;32
Mo;10.03.2012;49;43;43;37
Di;11.03.2012;39;31;26;25
Mi;12.03.2012;61;47;38;41
Do;13.03.2012;53;39;28;24
Fr;14.03.2012;72;63;53;45
Sa;15.03.2012;65;53;42;39
So;16.03.2012;77;67;58;53
Mo;17.03.2012;90;82;84;79
Di;18.03.2012;24;21;18;18
Mi;19.03.2012;40;24;19;18
Do;20.03.2012;51;42;34;33
Fr;21.03.2012;72;66;59;58
Sa;22.03.2012;61;53;43;37
So;23.03.2012;59;47;37;35
Mo;24.03.2012;53;46;40;38
Di;25.03.2012;33;32;31;25
Mi;26.03.2012;42;32;26;23
Do;27.03.2012;80;65;62;64
Fr;28.03.2012;73;60;56;53
Sa;29.03.2012;36;;;
So;30.03.2012;23;17;16;15
Mo;31.03.2012;31;26;24;24
Di;01.04.2012;24;20;20;23
Mi;02.04.2012;49;40;32;40
Do;03.04.2012;59;51;42;39
Fr;04.04.2012;78;66;64;57
Sa;05.04.2012;40;34;28;26
So;06.04.2012;39;35;34;35
Mo;07.04.2012;34;19;16;15
Di;08.04.2012;28;22;18;20
Mi;09.04.2012;15;13;11;12
Do;10.04.2012;15;14;10;9
Fr;11.04.2012;25;16;14;13
Sa;12.04.2012;28;24;19;18
So;13.04.2012;52;44;37;35
Mo;14.04.2012;52;44;36;39
Di;15.04.2012;23;19;16;17
Mi;16.04.2012;28;20;15;12
Do;17.04.2012;32;28;21;21
Fr;18.04.2012;21;20;11;11
Sa;19.04.2012;16;14;8;8
So;20.04.2012;25;19;13;13
Mo;21.04.2012;16;11;9;9
Di;22.04.2012;15;12;10;11
Mi;23.04.2012;19;16;10;11
Do;24.04.2012;17;16;9;9
Fr;25.04.2012;21;21;15;15
Sa;26.04.2012;12;12;9;8
So;27.04.2012;24;17;12;12
Mo;28.04.2012;33;30;23;23
Di;29.04.2012;36;32;27;26
Mi;30.04.2012;32;25;15;13
Do;01.05.2012;27;22;19;20
Fr;02.05.2012;72;64;59;55
Sa;03.05.2012;33;25;18;19
So;04.05.2012;31;24;20;20
Mo;05.05.2012;24;22;18;19
Di;06.05.2012;26;25;23;23
Mi;07.05.2012;45;36;27;25
Do;08.05.2012;22;19;14;13
Fr;09.05.2012;22;16;10;10
Sa;10.05.2012;25;21;14;15
So;11.05.2012;;;;
Mo;12.05.2012;23;17;14;13
Di;13.05.2012;22;21;17;16
Mi;14.05.2012;32;25;21;19
Do;15.05.2012;26;20;19;18
Fr;16.05.2012;22;15;13;11
Sa;17.05.2012;19;16;13;13
So;18.05.2012;22;19;14;14
Mo;19.05.2012;24;20;15;15
Di;20.05.2012;21;19;17;19
Mi;21.05.2012;;41;30;28
Do;22.05.2012;;56;57;47
Fr;23.05.2012;;72;69;63
Sa;24.05.2012;;35;29;24
So;25.05.2012;28;27;19;18
Mo;26.05.2012;25;23;19;23
Di;27.05.2012;23;22;18;26
Mi;28.05.2012;24;21;20;35
Do;29.05.2012;42;34;30;39
Fr;30.05.2012;40;33;29;35
Sa;31.05.2012;43;38;36;35
So;01.06.2012;31;21;16;16
Mo;02.06.2012;24;19;14;18
Di;03.06.2012;18;18;15;14
Mi;04.06.2012;29;26;19;17
Do;05.06.2012;30;22;16;15
Fr;06.06.2012;21;20;15;13
Sa;07.06.2012;18;16;12;13
So;08.06.2012;22;14;15;15
Mo;09.06.2012;19;14;15;15
Di;10.06.2012;16;14;11;15
Mi;11.06.2012;24;19;11;11
Do;12.06.2012;38;27;21;20
Fr;13.06.2012;35;24;19;17
Sa;14.06.2012;43;35;25;22
So;15.06.2012;23;20;15;13
Mo;16.06.2012;13;12;10;9
Di;17.06.2012;16;14;12;12
Mi;18.06.2012;25;19;16;15
Do;19.06.2012;43;37;26;26
Fr;20.06.2012;45;40;32;33
Sa;21.06.2012;;;;
So;22.06.2012;23;17;16;15
Mo;23.06.2012;21;17;16;15
Di;24.06.2012;16;14;12;13
Mi;25.06.2012;23;16;16;15
Do;26.06.2012;30;24;19;17
Fr;27.06.2012;32;28;22;20
Sa;28.06.2012;32;28;20;21
So;29.06.2012;34;28;24;23
Mo;30.06.2012;27;25;20;21
Di;01.07.2012;15;13;12;15
Mi;02.07.2012;28;23;14;14
Do;03.07.2012;29;25;18;32
Fr;04.07.2012;30;27;18;20
Sa;05.07.2012;34;30;21;20
So;06.07.2012;23;17;13;13
Mo;07.07.2012;23;18;12;12
Di;08.07.2012;14;13;11;10
Mi;09.07.2012;20;15;13;12
Do;10.07.2012;29;24;16;17
Fr;11.07.2012;19;15;12;11
Sa;12.07.2012;18;13;11;11
So;13.07.2012;13;11;8;8
Mo;14.07.2012;14;12;10;9
Di;15.07.2012;17;14;12;11
Mi;16.07.2012;22;16;15;14
Do;17.07.2012;18;16;13;13
Fr;18.07.2012;22;15;14;14
Sa;19.07.2012;19;14;13;12
So;20.07.2012;36;25;22;19
Mo;21.07.2012;20;17;13;12
Di;22.07.2012;21;21;17;18
Mi;23.07.2012;22;21;12;16
Do;24.07.2012;161;32;20;48
Fr;25.07.2012;43;39;32;51
Sa;26.07.2012;47;42;39;46
So;27.07.2012;48;44;38;39
Mo;28.07.2012;32;27;23;22
Di;29.07.2012;20;17;16;16
Mi;30.07.2012;19;13;11;11
Do;31.07.2012;29;22;16;16
Fr;01.08.2012;;;;
Sa;02.08.2012;26;19;15;16
So;03.08.2012;26;20;16;17
Mo;04.08.2012;23;18;14;14
Di;05.08.2012;18;16;12;13
Mi;06.08.2012;18;13;11;12
Do;07.08.2012;18;13;12;12
Fr;08.08.2012;23;18;12;13
Sa;09.08.2012;30;24;17;20
So;10.08.2012;22;19;12;15
Mo;11.08.2012;21;19;12;18
Di;12.08.2012;14;14;10;11
Mi;13.08.2012;30;27;18;25
Do;14.08.2012;30;25;21;22
Fr;15.08.2012;31;27;20;19
Sa;16.08.2012;32;26;19;19
So;17.08.2012;34;29;21;22
Mo;18.08.2012;24;20;16;16
Di;19.08.2012;28;28;23;23
Mi;20.08.2012;48;41;36;35
Do;21.08.2012;46;39;32;33
Fr;22.08.2012;25;21;18;19
Sa;23.08.2012;31;26;19;23
So;24.08.2012;31;25;19;20
Mo;25.08.2012;21;15;13;13
Di;26.08.2012;14;12;11;11
Mi;27.08.2012;24;20;13;13
Do;28.08.2012;27;22;15;14
Fr;29.08.2012;28;23;17;16
Sa;30.08.2012;32;20;17;17
So;31.08.2012;23;19;14;13
Mo;01.09.2012;31;26;17;20
Di;02.09.2012;25;22;18;22
Mi;03.09.2012;46;40;27;31
Do;04.09.2012;38;32;22;24
Fr;05.09.2012;43;35;29;31
Sa;06.09.2012;37;27;20;30
So;07.09.2012;45;34;27;31
Mo;08.09.2012;33;31;24;34
Di;09.09.2012;24;24;19;22
Mi;10.09.2012;50;35;27;34
Do;11.09.2012;26;21;18;17
Fr;12.09.2012;;19;;
Sa;13.09.2012;35;27;17;17
So;14.09.2012;28;23;17;17
Mo;15.09.2012;31;26;19;18
Di;16.09.2012;26;25;19;19
Mi;17.09.2012;33;24;18;19
Do;18.09.2012;28;20;15;16
Fr;19.09.2012;27;17;13;13
Sa;20.09.2012;29;23;16;15
So;21.09.2012;33;30;19;19
Mo;22.09.2012;27;22;18;18
Di;23.09.2012;19;17;11;13
Mi;24.09.2012;21;19;14;14
Do;25.09.2012;13;12;6;7
Fr;26.09.2012;14;12;6;7
Sa;27.09.2012;16;12;9;9
So;28.09.2012;31;23;18;17
Mo;29.09.2012;25;19;16;16
Di;30.09.2012;23;22;17;17
Mi;01.10.2012;35;27;19;19
Do;02.10.2012;30;24;15;15
Fr;03.10.2012;12;11;9;10
Sa;04.10.2012;18;14;10;10
So;05.10.2012;17;13;10;10
Mo;06.10.2012;20;17;13;13
Di;07.10.2012;27;23;18;17
Mi;08.10.2012;29;26;17;16
Do;09.10.2012;40;34;24;22
Fr;10.10.2012;39;35;22;21
Sa;11.10.2012;34;27;18;17
So;12.10.2012;25;21;17;17
Mo;13.10.2012;15;13;10;10
Di;14.10.2012;14;11;8;9
Mi;15.10.2012;25;18;15;16
Do;16.10.2012;21;20;14;13
Fr;17.10.2012;22;24;16;14
Sa;18.10.2012;32;25;15;15
So;19.10.2012;39;33;21;20
Mo;20.10.2012;42;32;25;26
Di;21.10.2012;42;38;27;29
Mi;22.10.2012;52;43;25;25
Do;23.10.2012;60;48;37;39
Fr;24.10.2012;88;68;60;61
Sa;25.10.2012;;;;
So;26.10.2012;44;27;17;17
Mo;27.10.2012;29;22;15;16
Di;28.10.2012;42;40;32;29
Mi;29.10.2012;64;25;16;16
Do;30.10.2012;31;21;17;16
Fr;31.10.2012;38;28;19;17
Sa;01.11.2012;18;16;13;13
So;02.11.2012;13;11;8;8
Mo;03.11.2012;15;14;9;9
Di;04.11.2012;15;13;10;9
Mi;05.11.2012;27;16;16;14
Do;06.11.2012;41;24;23;19
Fr;07.11.2012;25;21;19;18
Sa;08.11.2012;37;27;25;25
So;09.11.2012;35;29;20;20
Mo;10.11.2012;27;26;20;19
Di;11.11.2012;21;16;13;14
Mi;12.11.2012;35;26;19;19
Do;13.11.2012;34;28;21;19
Fr;14.11.2012;42;36;26;21
Sa;15.11.2012;52;42;34;32
So;16.11.2012;58;49;43;40
Mo;17.11.2012;36;29;23;23
Di;18.11.2012;30;27;22;20
Mi;19.11.2012;43;36;24;22
Do;20.11.2012;36;29;21;20
Fr;21.11.2012;26;20;15;14
Sa;22.11.2012;28;21;14;14
So;23.11.2012;26;24;15;16
Mo;24.11.2012;26;29;22;22
Di;25.11.2012;17;15;14;13
Mi;26.11.2012;21;19;13;11
Do;27.11.2012;29;21;14;13
Fr;28.11.2012;51;41;33;32
Sa;29.11.2012;28;19;13;12
So;30.11.2012;43;31;22;21
Mo;01.12.2012;36;33;31;29
Di;02.12.2012;15;12;12;12
Mi;03.12.2012;24;22;17;16
Do;04.12.2012;24;18;17;16
Fr;05.12.2012;*);*);;
Sa;06.12.2012;26;20;16;14
So;07.12.2012;18;23;13;12
Mo;08.12.2012;42;39;33;31
Di;09.12.2012;24;20;19;19
Mi;10.12.2012;20;18;14;14
Do;11.12.2012;30;33;18;17
Fr;12.12.2012;42;44;31;31
Sa;13.12.2012;48;52;24;20
So;14.12.2012;24;24;19;17
Mo;15.12.2012;15;15;10;10
Di;16.12.2012;14;12;11;11
Mi;17.12.2012;23;21;14;15
Do;18.12.2012;33;28;23;21
Fr;19.12.2012;47;47;30;27
Sa;20.12.2012;29;26;18;15
So;21.12.2012;31;31;20;17
Mo;22.12.2012;23;21;15;15
Di;23.12.2012;10;9;8;7
Mi;24.12.2012;17;16;13;11
Do;25.12.2012;9;8;7;7
Fr;26.12.2012;10;8;8;8
Sa;27.12.2012;22;18;17;15
So;28.12.2012;24;20;15;14
Mo;29.12.2012;11;9;7;7
Di;30.12.2012;10;8;8;8
Mi;31.12.2012;15;13;12;11
